Flag for Argentina Weather past 2 weeks in Tucumán, Tucumán, Argentina

Now
48 °F

Cool.


Feels Like: 46 °F
Forecast: 41 / 74 °F
Wind: 5 mph from Southwest

Location: Tucuman Aerodrome

Current Time: Jul 29, 2014 at 6:02:38 AM

Latest Report: Jul 29, 2014 at 5:00 AM


Visibility: 4 mi

Pressure: 29.92 "Hg

Humidity: 76%

Dew point: 41 °F

Location of TucumánLocation

Historic Weather in Tucumán — Graph

°F

Tucumán temperature yesterday

Maximum temperature yesterday: 72 °F (at 4:00 PM)
Minimum temperature yesterday: 41 °F (at 7:00 AM)
Average temperature yesterday: 54 °F

Past Weeks' High & Low Weather Summary

 TemperatureHumidityPressure
High75 °F (Jul 14, 4:00 PM)94% (Jul 14, 7:00 AM)30.48 "Hg (Jul 14, 7:00 AM)
Low36 °F (Jul 25, 3:00 AM)27% (Jul 24, 5:00 PM)29.71 "Hg (Jul 14, 4:00 PM)
Average56 °F66%30.08 "Hg
* Reported Jul 14 5:00 AM — Jul 29 5:00 AM, Tucumán, Weather by CustomWeather, © 2014

Note: Actual official high and low records may vary slightly from our data, if they occured in-between our weather recording intervals... More about our weather records

Advertising

Tucumán weather history for previous 24 hours

 ConditionsComfort  
Time TempWeatherWind HumidityBarometerVisibility
5:00 AM
Jul 29
48 °FCool.5 mph76%29.92 "Hg4 mi
4:00 AM52 °FClear.2 mph50%29.92 "Hg5 mi
3:00 AM54 °FClear.7 mph67%29.95 "Hg4 mi
2:00 AM55 °FClear.12 mph59%29.95 "Hg5 mi
1:00 AM55 °FClear.14 mph55%29.95 "Hg4 mi
12:00 AM50 °FClear.7 mph76%29.98 "Hg4 mi
11:00 PM
Jul 28
52 °FClear.7 mph77%30.01 "Hg4 mi
10:00 PM55 °FClear.7 mph67%30.01 "Hg4 mi
8:00 PM59 °FClear.7 mph55%30.01 "Hg4 mi
7:00 PM64 °FClear.5 mph49%30.01 "Hg4 mi
6:00 PM72 °FClear.2 mph33%29.98 "Hg4 mi
5:00 PM72 °FClear.9 mph33%29.98 "Hg4 mi
4:00 PM72 °FClear.7 mph33%29.98 "Hg4 mi
2:00 PM68 °FClear.6 mph38%30.04 "Hg4 mi
1:00 PM64 °FClear.2 mph40%30.09 "Hg4 mi
12:00 PM59 °FClear.No wind48%30.12 "Hg4 mi
11:00 AM59 °FClear.10 mph48%30.12 "Hg4 mi
10:00 AM52 °FClear.10 mph62%30.12 "Hg6 mi
9:00 AM45 °FClear.10 mph71%30.12 "Hg6 mi
8:00 AM43 °FClear.10 mph76%30.12 "Hg6 mi
7:00 AM41 °FClear.8 mph81%30.09 "Hg6 mi
6:00 AM43 °FClear.7 mph76%30.09 "Hg6 mi
Weather by CustomWeather, © 2014

See weather overviewHow to use our weather pages